Location: Unspecified
(0.0000°N, 0.0000°E)
Time: 07:05:27
(UTC+00:00)

N. Korean satellite - Pass Details

Date: 17 September 2021
Orbit: 448 x 499 km, 97.3° (Epoch: 17 September)

Event Time Altitude Azimuth Distance (km) Brightness Sun altitude
Rises 04:18:35 0° 33° (NNE) 2,520 10.7 -24.0°
Reaches altitude 10° 04:20:57 10° 49° (NE) 1,654 9.9 -23.4°
Maximum altitude 04:23:45 22° 101° (ESE) 1,102 9.1 -22.7°
Drops below altitude 10° 04:26:37 10° 154° (SSE) 1,681 9.6 -22.0°
Sets 04:29:01 0° 169° (S) 2,572 10.4 -21.4°
